Location: B�rgermoos
(47.6500°N, 9.0667°E)
Time: 15:54:49
(UTC+00:00)

Vanguard 1 - Pass Details

Date: 05 August 2021
Orbit: 652 x 3831 km, 34.3° (Epoch: 17 September)

Event Time Altitude Azimuth Distance (km) Brightness Sun altitude
Rises 14:33:50 0° 254° (WSW) 3,939 14.0 41.4°
Reaches altitude 10° 14:37:56 10° 230° (SW) 3,455 13.9 40.8°
Maximum altitude 14:42:06 14° 201° (SSW) 3,632 13.7 40.1°
Drops below altitude 10° 14:47:22 10° 175° (S) 4,569 13.7 39.3°
Sets 14:54:46 0° 155° (SSE) 6,365 14.2 38.1°
